Theta_e
336 337 336 334 335 335 337 338 338 338 336 327 321 318 319 318 321 314 311 310 310 310 310 310 309 309 309 309 309 309 310 310 310 310 309 309 308 308 308 307 306 305 305
331 335 335 335 335 336 337 337 337 336 330 326 322 321 323 320 318 314 311 310 310 310 310 310 310 309 309 309 310 310 310 309 310 309 307 303 307 307 307 306 306 305 305
337 338 335 335 335 338 338 336 336 334 330 327 326 325 323 322 321 315 311 310 310 310 310 310 310 310 310 310 310 310 310 310 310 309 308 303 303 303 306 306 306 305 305
338 337 336 335 336 339 339 336 332 331 331 330 328 329 327 324 324 316 311 310 310 309 310 310 310 310 310 310 309 310 311 311 310 309 309 309 307 303 303 306 306 305 305
338 338 336 336 336 337 339 334 332 330 331 333 331 330 330 327 324 314 311 310 309 309 309 310 310 310 310 310 310 310 310 310 310 309 308 307 307 305 301 300 303 304 304
332 336 337 336 336 336 337 333 332 332 333 332 329 331 331 329 314 312 312 310 309 309 309 310 310 310 309 310 310 310 309 308 308 307 307 306 305 303 301 297 298 298 300
328 333 334 333 335 337 336 333 334 332 331 328 328 331 327 317 314 313 312 309 309 310 310 310 309 309 309 309 309 308 308 307 306 305 304 303 302 301 301 299 297 295 297
326 329 334 333 334 337 337 336 335 332 330 327 330 328 318 318 315 315 312 310 310 310 310 309 309 309 309 309 308 307 305 304 303 302 301 300 299 299 298 298 297 293 294
325 326 327 330 334 335 334 333 331 330 329 329 325 321 319 315 314 312 312 311 310 309 309 309 309 308 306 305 303 302 302 301 300 299 298 298 298 297 297 297 297 296 292
322 323 323 322 327 330 329 331 330 328 327 323 319 316 314 313 313 312 310 310 310 308 307 307 306 304 302 301 301 300 299 299 298 298 297 297 297 297 297 296 296 296 295
315 311 309 310 315 319 320 317 320 319 317 311 311 311 310 310 310 310 309 308 307 306 305 303 302 302 301 300 299 298 298 297 297 297 296 296 296 296 296 296 295 295 295
311 308 307 307 307 309 311 310 311 311 311 310 310 309 308 308 307 306 305 304 304 302 302 301 300 300 299 298 298 297 297 297 297 296 296 296 296 296 296 296 296 295 295
308 307 306 304 306 307 308 308 308 308 308 307 306 305 305 304 303 303 302 302 301 300 300 299 299 298 298 297 297 297 297 297 297 296 296 296 295 295 295 295 295 295 294
307 305 303 302 304 304 305 305 304 305 304 304 304 303 302 302 301 300 300 299 299 298 298 298 297 297 297 297 297 297 297 297 297 296 296 296 296 295 295 295 295 296 296
306 304 302 301 302 302 303 304 303 304 304 303 302 301 301 300 300 299 299 299 298 298 298 298 298 297 297 297 297 298 298 298 297 297 297 296 295 295 295 295 295 295 295
305 303 302 301 301 302 302 303 303 303 303 302 301 300 300 300 299 299 299 299 298 298 298 298 298 297 297 297 298 298 298 298 298 297 295 294 293 292 293 294 295 296 296
303 302 301 301 302 302 302 302 302 302 302 301 300 300 299 299 299 299 298 298 298 298 297 297 297 297 296 296 298 298 297 297 295 293 294 293 292 292 292 293 294 294 295
302 300 300 301 301 301 301 301 301 301 300 299 299 299 299 299 298 298 298 298 297 297 297 297 296 296 296 295 296 296 295 294 294 293 293 293 293 292 293 294 294 295 295
300 300 301 301 300 300 300 300 299 299 299 298 299 298 298 298 298 298 297 297 297 296 296 296 295 295 294 294 294 294 294 293 293 293 293 293 293 293 294 295 296 296 295
300 300 300 300 300 299 300 299 299 299 298 298 298 298 298 298 298 297 296 296 296 296 295 294 293 292 291 291 293 293 294 293 293 292 292 292 293 294 295 295 295 295 296
300 300 300 300 299 299 300 299 298 298 298 298 298 298 298 297 297 296 295 295 295 294 293 291 291 291 290 290 291 292 293 292 291 292 292 292 292 293 294 295 296 294 295
299 299 299 298 298 299 299 298 298 298 298 298 298 297 296 296 295 295 294 293 292 291 290 290 290 290 290 289 290 291 292 291 291 291 292 291 292 293 294 295 295 293 293
298 298 298 298 299 299 299 298 298 298 297 297 296 295 295 294 293 292 291 291 290 290 291 290 290 289 289 289 289 290 290 291 291 292 292 292 293 293 293 291 292 292 290
298 298 298 297 297 298 298 298 297 297 296 295 294 293 293 292 291 290 290 290 291 291 290 290 289 289 289 289 289 289 290 290 291 291 291 292 291 289 290 289 289 289 289
298 298 298 297 297 298 297 297 296 296 295 293 293 293 291 290 290 290 289 290 290 290 290 289 289 289 289 289 290 290 290 291 291 292 292 290 288 288 288 288 288 289 289
298 298 297 298 297 296 296 295 294 294 293 293 292 291 289 289 288 288 289 289 288 288 289 289 288 288 288 289 289 289 289 290 291 291 288 288 288 288 288 288 288 289 288
Wind_Speed
22 24 31 38 39 37 37 47 47 46 45 45 40 36 33 28 23 23 21 21 23 22 22 22 18 15 14 12 9 8 6 3 2 2 4 6 4 5 11 8 5 4 5
8 14 27 34 36 37 44 44 47 49 45 43 37 34 35 30 26 21 21 22 23 23 22 21 18 16 15 13 11 9 7 4 1 2 2 3 4 4 3 8 4 3 1
11 15 21 33 34 32 37 37 43 45 44 42 38 28 29 24 20 20 22 23 23 23 22 20 18 17 15 13 12 10 8 6 5 3 3 2 3 3 3 6 5 3 4
12 16 20 22 25 26 28 30 38 42 41 42 36 34 28 25 25 31 27 24 22 23 21 20 18 18 16 13 11 10 10 9 8 6 8 9 6 3 3 6 8 6 7
18 19 20 30 36 28 17 26 32 32 35 35 34 34 29 27 25 29 25 23 22 21 21 19 17 16 15 14 13 12 11 11 10 9 6 9 8 7 3 3 6 5 12
11 13 20 28 28 31 27 28 28 25 26 31 30 30 24 22 22 27 25 25 24 22 19 18 17 15 13 12 13 12 10 8 7 7 6 6 3 2 3 1 5 7 13
0 8 14 15 21 26 24 27 28 21 27 27 27 25 23 24 26 26 25 25 23 21 21 18 15 14 13 12 11 9 8 6 5 4 3 3 4 5 6 5 6 7 4
9 10 9 17 18 19 21 22 24 22 23 22 30 25 20 19 25 23 24 24 21 19 17 17 15 13 11 10 8 7 5 3 2 2 3 4 5 6 7 7 7 3 3
9 12 11 12 10 13 17 18 20 22 25 25 20 19 18 25 22 20 19 21 19 18 18 17 15 12 8 7 5 3 2 3 4 5 6 8 9 10 11 12 12 8 3
7 8 7 13 19 18 21 22 22 22 22 20 19 18 18 20 18 19 20 19 19 19 16 13 11 9 7 4 3 2 2 3 4 5 7 8 9 10 11 14 15 17 18
7 8 8 16 20 22 24 24 24 23 24 23 24 24 23 22 21 21 20 21 18 15 11 9 8 6 4 3 3 2 2 4 6 8 9 8 9 11 13 15 16 18 19
9 9 12 16 20 21 22 23 24 26 24 24 25 24 23 22 21 20 16 12 11 9 6 5 4 3 3 4 4 5 6 9 11 11 12 14 15 15 14 15 17 19 20
10 8 10 12 17 22 22 23 23 24 24 25 26 25 24 22 19 16 13 10 8 6 5 4 4 4 5 6 6 7 9 11 13 13 14 12 13 17 18 20 24 26 26
7 6 7 10 18 20 24 25 25 26 26 26 24 23 20 18 15 12 10 8 6 5 4 3 3 3 4 6 8 9 9 12 13 11 14 14 16 18 21 22 24 23 21
6 6 6 8 18 24 25 25 24 24 23 23 21 18 15 12 10 8 7 5 3 2 1 2 4 6 8 8 7 8 11 13 14 15 16 18 20 18 22 24 24 25 26
6 7 7 12 17 23 23 22 22 21 19 17 15 12 11 8 7 5 3 2 1 2 4 5 6 6 6 7 8 11 15 16 16 17 17 21 18 18 18 21 22 23 24
7 7 7 13 18 18 19 19 19 18 15 13 11 10 8 8 5 3 3 2 2 3 3 4 6 8 9 11 13 15 17 16 13 13 16 16 20 23 27 24 24 22 21
8 7 13 16 16 18 18 19 16 14 12 11 10 8 7 5 4 2 2 2 3 5 7 9 10 10 12 12 14 14 15 11 12 14 16 22 26 23 22 24 25 26 22
10 16 19 19 20 20 19 18 15 13 12 11 9 7 5 3 1 1 2 5 8 9 9 10 9 11 11 10 10 13 15 16 18 18 21 20 21 22 22 23 24 20 23
20 25 25 23 21 17 15 15 14 13 11 8 5 2 1 1 2 2 5 7 9 10 9 9 8 7 8 10 13 15 18 19 17 20 18 21 20 21 20 23 24 22 19
23 24 21 18 16 15 14 15 12 10 6 4 2 1 0 1 1 2 5 8 7 7 7 8 8 11 15 19 18 17 17 17 19 18 20 18 19 22 24 24 22 15 20
20 22 21 16 12 13 14 13 10 6 4 2 3 2 1 1 2 5 5 6 6 7 9 9 13 16 19 18 16 16 17 18 18 18 21 25 24 23 26 24 19 23 24
20 20 20 17 14 13 12 11 7 4 4 5 5 4 3 4 6 7 6 4 7 7 7 12 17 22 22 18 17 17 17 18 20 23 23 24 25 24 19 19 20 20 17
20 19 18 16 14 12 10 9 6 5 5 6 5 5 6 8 7 5 5 8 4 7 11 15 18 21 19 19 21 21 21 22 21 22 24 20 14 20 17 18 19 18 17
18 19 18 16 14 12 10 7 5 2 4 5 5 7 7 8 9 7 6 8 8 11 16 17 15 17 17 20 21 21 22 21 21 24 19 18 18 18 17 17 17 17 16
18 18 17 17 16 13 10 6 3 3 3 3 6 5 8 11 10 9 10 9 12 13 13 14 17 19 21 22 21 22 21 22 23 20 18 21 19 18 17 17 16 16 17
Wind_Direction
218 191 180 179 177 171 172 177 176 177 182 175 171 167 165 172 178 184 189 191 184 186 187 180 182 183 185 182 184 179 169 163 133 321 325 336 78 1 230 225 216 242 265
181 160 173 174 175 175 176 178 177 177 176 175 171 173 174 176 177 187 192 195 188 186 188 192 190 188 189 189 192 192 190 184 152 126 68 9 331 45 157 194 222 270 83
153 157 166 175 176 180 177 177 180 179 177 179 179 174 172 171 178 189 198 195 195 195 196 193 192 193 194 193 199 212 219 202 195 203 166 80 238 319 192 200 239 252 296
150 159 167 172 176 186 185 178 172 178 182 185 183 182 172 168 194 188 196 201 197 197 194 192 195 200 204 207 217 224 224 227 221 219 228 240 235 193 311 256 265 279 304
154 161 167 166 172 218 188 177 174 179 186 190 194 188 179 192 201 188 190 204 196 196 197 199 201 202 208 214 215 219 223 226 234 223 212 227 239 241 184 250 283 273 299
179 169 164 170 180 184 188 174 173 181 195 201 194 186 186 201 198 189 189 198 195 194 196 196 202 207 213 207 206 208 206 202 211 221 231 238 227 205 209 199 263 268 298
298 145 145 154 170 172 170 168 178 193 205 199 194 188 202 196 196 189 193 191 188 189 192 196 203 209 204 199 194 198 198 196 199 201 220 242 268 278 280 266 258 243 267
49 71 134 160 166 172 174 174 181 186 184 190 198 191 195 209 203 194 196 200 193 191 192 196 186 182 181 191 191 205 204 211 239 256 275 280 284 283 283 279 281 302 278
53 66 67 86 137 146 146 144 151 151 172 180 185 184 199 197 201 193 197 200 194 187 180 180 178 175 177 191 190 196 203 252 272 282 287 287 286 285 286 284 279 261 263
66 66 63 77 102 119 119 137 145 151 153 157 169 175 181 184 183 188 192 186 171 160 157 158 168 162 177 170 184 200 218 252 272 282 283 285 288 288 288 288 288 283 274
63 62 56 76 100 106 114 122 133 140 141 136 138 139 143 147 147 146 143 144 146 150 154 156 163 172 199 217 240 243 270 288 294 296 300 300 301 299 296 293 291 288 284
79 73 70 73 81 96 107 108 117 125 127 129 127 124 125 126 126 126 129 132 136 138 148 170 197 206 208 234 246 260 276 291 296 296 295 298 296 294 296 299 300 298 296
58 59 66 69 86 96 101 112 119 118 122 122 119 118 119 119 118 119 124 131 134 146 167 183 198 223 233 233 243 268 286 293 294 289 287 288 294 299 300 302 300 297 294
75 71 63 71 85 92 103 105 109 116 115 114 113 112 113 115 116 116 120 125 126 131 140 172 201 211 224 256 277 283 284 289 282 275 284 293 302 300 306 304 299 296 294
89 87 89 89 93 96 103 111 113 114 115 113 113 112 114 114 114 110 102 99 97 80 8 306 285 281 284 286 286 291 294 292 286 285 283 295 298 293 297 297 293 290 286
99 103 104 104 105 109 110 113 117 119 121 119 117 119 115 107 100 98 96 88 28 323 307 304 297 287 285 288 292 291 294 295 294 288 285 294 301 304 298 297 291 285 283
134 127 128 127 126 123 125 126 131 130 124 121 121 119 115 114 112 106 95 69 31 359 339 325 317 313 312 309 303 297 294 294 291 290 301 300 301 296 296 293 290 284 281
132 130 131 126 126 126 125 131 135 129 123 120 123 122 125 119 112 96 51 12 347 334 327 320 316 313 315 311 304 298 294 299 304 303 301 298 296 295 295 292 290 292 294
139 138 139 134 132 129 127 122 119 118 114 114 113 111 115 119 89 23 360 335 325 319 316 314 307 309 311 312 313 303 301 302 300 297 297 295 295 299 292 284 283 279 283
129 129 129 128 128 129 129 119 114 113 106 105 101 97 89 39 14 349 328 323 315 309 309 312 310 311 319 315 317 305 298 301 303 303 296 295 292 293 293 295 291 292 289
131 132 129 123 128 133 128 117 118 108 103 80 50 29 280 203 269 321 323 318 311 306 313 315 311 313 319 321 316 301 292 302 300 295 299 299 296 293 291 287 292 287 294
133 131 120 112 123 135 131 120 111 105 87 34 342 323 136 45 341 332 336 326 322 326 326 316 313 320 324 324 315 305 301 300 302 297 294 300 296 289 292 297 300 299 298
140 136 125 112 111 125 128 118 102 98 76 75 73 73 63 13 352 340 337 338 333 331 332 326 320 319 321 317 317 307 302 301 301 298 296 295 295 295 298 303 298 300 299
145 143 134 122 119 123 115 110 106 95 92 88 76 42 13 350 350 3 354 339 336 338 329 321 311 311 309 313 318 313 311 309 298 299 301 295 312 309 301 297 297 293 290
156 154 144 136 134 131 118 108 99 90 82 73 40 13 3 359 351 345 343 341 329 325 321 317 315 310 306 309 308 309 307 304 302 300 290 302 313 309 304 302 300 295 293
163 154 145 142 142 136 122 104 72 71 91 44 14 13 355 345 344 341 328 332 335 329 324 318 316 314 308 307 310 311 310 309 309 310 312 306 302 293 291 289 287 287 289